User: anonymous   Login
Location: Fontevrault
(47.1823°N, 0.0493°E)
Time: 04:40:56
(UTC+00:00)
Language:

Cosmos 2322 - Orbit

View from above orbital plane
View from above orbital plane
View from above satellite
View from above satellite

Ground track
Ground track

The orbit data is extracted from the following two-line orbital elements,

1 23704U 95058A   21260.62156871  .00000035  00000-0  43962-4 0  9996
2 23704  70.9859  27.6779 0011561 261.8125  98.1686 14.13430315335333
Epoch (UTC): 17 September 2021 14:55:03
Eccentricity: 0.0011561
inclination: 70.9859°
perigee height: 839 km
apogee height: 856 km
right ascension of ascending node: 27.6779°
argument of perigee: 261.8125°
revolutions per day: 14.13430315
mean anomaly at epoch: 98.1686°
orbit number at epoch: 33533

The dashed part of the orbit path shows where the satellite is in the earth's shadow,  

DLR